Weather in Krestishche

Russia / Kursk Oblast     51°45′58″N   37°33′36″E
temp.,
°C
wind,
m/s
gust,
m/s
humid.,
%
clouds,
%
prec.,
mm/h
press.,
hPa
HPBL,
m
6 august, fri
fri600:00+21ese375690 0.0 1013133
03:00+19sse4115612 0.0 1012177
06:00+18se49625 0.0 1012169
09:00+25sse574196 0.0 1011457
12:00+29sse5635100 0.0 10101385
15:00+32s683186 0.0 10082422
18:00+29sse7123999 0.0 1007809
21:00+26se41248100 0.2 1007278
7 august, sat
sat700:00+23sse513535 0.3 1008225
03:00+20sse31063100 0.4 1008188
06:00+20sse41359100 0.1 1009327
09:00+20sse81580100 0.6 1010523
12:00+22se4107094 0.9 1009425
15:00+30s4832100 0.9 10091460
18:00+26wnw354998 0.0 1009187
21:00+23nw2360100 0.0 101057
8 august, sun
sun800:00+20nw2271100 0.1 101114
03:00+20nnw61082100 0.1 1013343
06:00+19n51077100 0.0 1013284
09:00+22nne5664100 0.0 1013438
12:00+28ne4445100 0.0 10141022
15:00+28ene3344100 0.0 1014540
18:00+26nne235460 0.0 101461
21:00+24se1146100 0.0 101612
9 august, mon
mon900:00+24ne1148100 0.0 101612
03:00+23e4647100 0.0 1017100
06:00+22ene374394 0.0 1017155
09:00+26ene474143 0.0 1017426
12:00+31ese7829100 0.0 10162223
15:00+28e5937100 0.0 1017843
18:00+23e4854100 0.1 1017250
21:00+23ne3649100 0.1 1018130
10 august, tue
tue1000:00+21se5963100 0.3 1017506
03:00+18n61185100 2.1 1016222
06:00+18nne61186100 0.6 1016395
09:00+17ne61193100 2.0 1016410
12:00+23ne71063100 0.5 1014572
15:00+26ne444670 0.6 10131253
18:00+22n5860100 0.0 1013336
21:00+20nnw5875100 0.0 1012250